Flight Track Log - Related Links

Times and Time Zones

All times are in EDT time to prevent confusion due to time zone crossing. See the SWA407 flight status page for this flight to view local times or setup timezone preferences in your user account.

Time Position Orientation Groundspeed Altitude Reporting Facility
EDT Latitude Longitude Course Direction KTS MPH feet Rate Location/Type
11:43PM 37.6847 -122.3711 353° North 175 201 3,900  Level Oakland Center
11:44PM 37.6503 -122.4253 231° Southwest 228 262 7,200 3,344 Climbing Oakland Center
11:45PM 37.5808 -122.4744 209° Southwest 273 314 10,700 2,754 Climbing Oakland Center
11:46PM 37.4758 -122.4967 190° South 385 443 12,800 2,852 Climbing Oakland Center
11:47PM 37.3606 -122.5142 187° South 414 476 16,500 3,273 Climbing Oakland Center
11:48PM 37.2400 -122.5303 186° South 429 494 19,400 2,678 Climbing Oakland Center
11:49PM 37.1131 -122.5489 187° South 450 518 21,900 2,410 Climbing Oakland Center
11:50PM 36.9806 -122.5697 187° South 472 543 24,300 2,607 Climbing Oakland Center
11:51PM 36.8450 -122.5417 171° South 492 566 27,200 2,754 Climbing Oakland Center
11:52PM 36.7122 -122.5078 168° South 490 564 29,900 2,579 Climbing Oakland Center
11:53PM 36.6017 -122.4103 145° Southeast 500 575 32,400 2,380 Climbing Oakland Center
11:54PM 36.4828 -122.2719 137° Southeast 491 565 34,700 1,869 Climbing Oakland Center
11:55PM 36.3836 -122.1519 136° Southeast 497 572 36,200 1,426 Climbing Oakland Center
11:56PM 36.2819 -122.0297 136° Southeast 506 582 37,600 1,438 Climbing Oakland Center
11:57PM 36.1817 -121.9097 136° Southeast 505 581 39,100 1,289 Climbing Oakland Center
11:58PM 36.0933 -121.8017 135° Southeast 502 578 40,200 878 Climbing Oakland Center
11:59PM 35.9908 -121.6844 137° Southeast 502 578 40,900 393 Climbing Oakland Center
12:00AM 35.8683 -121.5394 136° Southeast 508 585 41,000 50 Climbing Oakland Center
12:01AM 35.7667 -121.4181 136° Southeast 510 587 41,000  Level Oakland Center
12:02AM 35.6642 -121.3006 137° Southeast 508 585 41,000  Level Oakland Center
12:03AM 35.5619 -121.1811 136° Southeast 508 585 41,000  Level Oakland Center
12:04AM 35.4672 -121.0569 133° Southeast 503 579 41,000  Level Oakland Center
12:06AM 35.3881 -120.9156 124° Southeast 506 582 41,000  Level Oakland Center
12:06AM 35.3464 -120.8397 124° Southeast 506 582 41,000  Level Los Angeles Center
12:07AM 35.2664 -120.6997 125° Southeast 503 579 41,000  Level Los Angeles Center
12:08AM 35.1864 -120.5583 125° Southeast 503 579 41,000  Level Los Angeles Center
12:09AM 35.1061 -120.4172 125° Southeast 503 579 41,000  Level Los Angeles Center
12:10AM 35.0250 -120.2764 125° Southeast 504 580 41,000  Level Los Angeles Center
12:11AM 34.9444 -120.1358 125° Southeast 503 579 41,000  Level Los Angeles Center
12:12AM 34.8825 -120.0294 125° Southeast 503 579 41,000  Level Los Angeles Center
12:13AM 34.7689 -119.8344 125° Southeast 506 582 41,000  Level Los Angeles Center
12:14AM 34.6881 -119.6947 125° Southeast 507 583 41,000  Level Los Angeles Center
12:15AM 34.6064 -119.5550 125° Southeast 508 585 41,000  Level Los Angeles Center
12:16AM 34.5314 -119.4311 126° Southeast 505 581 41,000  Level Los Angeles Center
12:17AM 34.4333 -119.2650 126° Southeast 506 582 41,000  Level Los Angeles Center
12:18AM 34.3514 -119.1275 126° Southeast 503 579 41,000  Level Los Angeles Center
12:20AM 34.2692 -118.9908 126° Southeast 503 579 41,000 -311 Level Los Angeles Center
12:21AM 34.1719 -118.8272 126° Southeast 499 574 40,300 -774 Descending Los Angeles Center
12:22AM 34.0894 -118.6925 126° Southeast 499 574 39,400 -927 Descending Los Angeles Center
12:23AM 34.0092 -118.5581 126° Southeast 495 570 38,400 -1,756 Descending Los Angeles Center
12:24AM 33.9278 -118.4264 127° Southeast 488 562 35,800 -3,073 Descending Los Angeles Center
12:25AM 33.8181 -118.2892 134° Southeast 490 564 32,100 -2,878 Descending Los Angeles Center
12:26AM 33.7381 -118.1814 132° Southeast 488 562 29,900 -2,293 Descending Los Angeles Center
12:27AM 33.6475 -118.0667 133° Southeast 471 542 27,400 -2,213 Descending Los Angeles Center
12:28AM 33.5614 -117.9575 133° Southeast 453 521 25,400 -2,195 Descending Los Angeles Center
12:29AM 33.4769 -117.8514 134° Southeast 442 509 22,900 -2,537 Descending Los Angeles Center
12:30AM 33.3800 -117.7297 134° Southeast 424 488 20,200 -2,390 Descending Los Angeles Center
12:31AM 33.3019 -117.6317 134° Southeast 412 474 18,000 -2,262 Descending Los Angeles Center
12:32AM 33.2167 -117.5333 136° Southeast 404 465 15,600 -1,700 Descending Southern California TRACON
12:33AM 33.1333 -117.4667 146° Southeast 370 426 14,600 -1,150 Descending Southern California TRACON
12:34AM 33.0500 -117.4000 146° Southeast 338 389 13,300 -1,500 Descending Southern California TRACON
12:35AM 32.9833 -117.3333 140° Southeast 340 391 11,600 -1,339 Descending Southern California TRACON
12:36AM 32.9000 -117.2833 153° Southeast 319 367 10,600 -942 Descending Southern California TRACON
12:37AM 32.8167 -117.2500 161° South 301 346 9,700 -1,000 Descending Southern California TRACON
12:38AM 32.8000 -117.1667 103° East 288 331 8,600 -1,150 Descending Southern California TRACON
12:39AM 32.7833 -117.0833 103° East 273 314 7,400 -1,140 Descending Southern California TRACON
12:40AM 32.7667 -116.9833 101° East 269 310 6,300 -1,041 Descending Southern California TRACON
12:41AM 32.7500 -116.9000 103° East 265 305 5,300 -650 Descending Southern California TRACON
12:42AM 32.7000 -116.8500 140° Southeast 235 270 5,000 -250 Descending Southern California TRACON
12:43AM 32.6667 -116.8833 220° Southwest 194 223 4,800 -446 Descending Southern California TRACON
12:44AM 32.6833 -116.9500 287° West 193 222 4,100 -893 Descending Southern California TRACON
12:45AM 32.6833 -117.0167 270° West 204 235 3,000 -1,150 Descending Southern California TRACON
12:46AM 32.7000 -117.0833 287° West 202 232 1,800 -1,050 Descending Southern California TRACON
12:47AM 32.7167 -117.1333 292° West 161 185 900 -835 Descending Southern California TRACON
12:47AM 32.7242 -117.1456 306° West 182 209 700 -525 Descending Los Angeles Center
12:48AM 32.7364 -117.1969 286° West 168 193 200 -492 Descending Los Angeles Center

Login

Don't have an account? Register now (free) for customized features, flight alerts, and more!